Location: Unspecified
(58.7730°N, 5.8460°E)
Time: 11:22:33
(UTC+01:00)

Cosmos 1674 - Visible Passes

Search period start: 24 February 2017 00:00
Search period end: 06 March 2017 00:00
Orbit: 499 x 524 km, 82.5° (Epoch: 23 February)

Date Brightness Start Highest point End Pass type
(mag) Time Alt. Az. Time Alt. Az. Time Alt. Az.
01 Mar 5.8 22:40:47 10° N 22:40:54 11° N 22:40:54 11° N visible
02 Mar 5.6 22:24:27 10° N 22:24:45 12° N 22:24:45 12° N visible
03 Mar 5.5 22:08:09 10° N 22:08:38 13° N 22:08:38 13° N visible
04 Mar 5.3 21:51:51 10° N 21:52:30 13° NNE 21:52:30 13° NNE visible
04 Mar 6.0 23:27:10 10° NNW 23:27:26 12° NNW 23:27:26 12° NNW visible
05 Mar 5.2 21:35:35 10° N 21:36:23 14° NNE 21:36:23 14° NNE visible
05 Mar 5.7 23:10:45 10° NNW 23:11:18 14° NNW 23:11:18 14° NNW visible
